Dewpoint
60 60 60 60 60 60 59 58 58 57 56 55 53 53 52 51 51 44 40 41 43 51 55 52 49 47 46 47 51 45 41 39 37 31 29 30 30 30 33 27 27 26 44 47 53
61 61 61 61 61 61 61 60 60 59 57 56 55 53 52 51 44 38 43 50 52 54 48 49 48 45 42 47 51 49 42 39 38 38 32 31 31 30 32 32 30 33 46 52 61
62 62 62 62 62 62 61 61 61 60 59 57 56 54 51 47 36 34 49 51 48 46 42 43 47 45 41 44 48 46 43 40 40 40 39 35 33 34 33 32 32 28 46 52 61
62 62 62 62 62 62 62 62 61 61 61 58 57 54 50 42 35 41 53 53 48 38 37 43 47 44 40 41 43 44 45 44 43 43 42 39 39 37 36 35 36 35 49 51 58
62 62 62 62 62 62 62 62 62 62 62 60 57 53 46 37 37 37 49 46 33 34 33 33 38 43 40 39 40 41 42 45 45 44 43 42 41 40 40 40 38 35 50 51 51
62 62 62 62 61 61 61 61 61 61 61 61 57 52 44 36 39 37 36 35 33 32 31 31 32 34 33 36 37 38 40 40 42 44 42 41 40 40 39 39 37 36 49 50 50
62 62 61 61 60 60 61 60 61 60 61 60 56 49 43 38 39 40 39 38 36 34 31 31 30 31 34 37 40 40 40 40 40 39 43 44 41 41 40 39 35 35 43 50 50
61 59 58 59 58 58 59 59 58 59 60 58 54 46 40 42 41 39 38 35 35 35 33 32 31 30 29 34 34 37 40 36 35 38 38 41 37 39 42 37 36 34 36 46 50
59 58 58 57 57 57 57 57 57 58 56 52 46 42 37 41 37 38 39 35 31 33 32 31 32 31 33 32 32 34 33 34 35 33 34 38 35 37 39 36 35 35 34 41 48
57 56 56 56 57 57 54 53 51 49 47 46 44 38 38 35 34 29 24 24 18 19 26 30 32 29 31 31 24 25 28 29 31 37 36 33 34 36 39 37 36 35 35 34 47
56 56 56 56 56 56 50 47 43 40 41 37 37 35 34 39 42 30 27 21 17 17 14 26 25 28 28 28 27 29 30 33 35 35 35 38 38 37 35 39 36 35 35 34 35
56 56 56 56 52 50 49 44 37 37 35 37 39 37 36 37 35 33 26 19 17 18 15 17 21 23 25 29 29 28 28 27 27 29 32 35 34 36 34 33 34 35 35 35 35
56 56 56 54 47 44 41 39 40 40 36 36 35 34 35 35 31 20 20 19 20 16 13 13 15 16 16 17 22 26 26 26 27 28 29 29 29 28 32 33 33 34 35 35 34
56 56 56 49 44 43 39 39 41 41 33 29 25 24 27 26 22 21 24 26 27 21 19 13 12 15 15 16 16 16 16 16 19 21 25 27 20 24 24 27 31 31 33 35 34
56 56 54 49 43 40 40 41 42 41 12 24 22 26 27 28 26 20 27 27 23 20 20 18 14 11 15 15 17 16 21 17 18 21 21 21 25 23 29 29 30 32 33 33 35
52 49 46 44 42 41 42 42 41 21 8 19 28 29 29 26 22 16 24 28 26 22 22 19 14 16 15 16 17 15 17 20 21 21 19 21 21 20 22 23 25 31 32 33 34
48 46 44 43 39 43 42 39 21 12 27 24 20 22 23 16 11 11 16 16 13 13 13 14 11 12 15 13 17 18 19 10 5 15 12 15 19 18 22 20 22 25 29 33 34
45 44 43 41 43 43 40 27 11 22 23 29 29 27 22 14 15 16 14 11 15 13 14 8 5 10 19 16 15 14 19 13 6 1 13 20 16 15 20 21 23 28 27 31 34
43 42 41 42 43 42 33 15 18 24 29 28 27 23 14 19 18 15 15 14 18 24 10 7 13 20 19 19 17 17 17 21 19 18 14 14 12 11 9 16 26 24 25 29 32
40 40 39 43 44 40 25 22 26 30 29 28 23 26 20 14 14 12 15 16 21 26 26 22 8 17 19 16 18 19 24 18 20 9 9 14 12 8 15 22 23 21 28 28 30
40 34 40 43 42 34 17 19 27 30 30 27 24 24 18 17 16 15 13 17 20 23 25 22 15 13 16 15 16 18 21 22 23 23 13 9 9 12 12 11 23 26 32 34 34
38 32 41 42 31 23 24 26 28 28 31 30 30 25 22 17 16 17 16 18 24 23 20 23 18 15 13 18 20 17 19 23 16 10 16 17 12 26 26 31 33 32 36 34 33
35 33 41 40 24 24 23 28 28 27 27 27 26 26 25 19 17 17 18 22 26 26 22 21 13 3 5 10 13 16 16 24 24 22 16 17 18 25 22 24 33 35 34 36 38
34 29 32 33 34 29 26 25 25 29 28 28 28 28 26 21 20 16 20 25 26 27 27 25 19 7 2 1 6 9 17 18 20 16 15 15 19 15 20 30 33 35 38 38 37
36 33 32 24 26 29 29 27 27 27 30 29 28 27 24 21 19 18 18 20 22 24 26 22 12 15 16 15 17 15 15 16 17 17 15 14 12 14 28 30 32 37 33 35 34
34 33 35 32 30 27 29 25 25 26 30 26 26 24 26 22 19 16 19 19 17 20 19 16 11 18 15 15 12 10 12 12 13 22 23 18 15 25 26 26 30 36 32 31 31
40 38 36 30 31 27 23 24 28 31 31 28 27 25 24 25 25 25 22 22 19 17 15 15 14 11 9 12 11 7 13 21 24 23 23 19 23 24 23 23 30 32 32 32 30
Lifted_Index
9 9 9 9 9 9 10 10 10 11 11 12 13 13 13 13 12 12 12 14 14 13 11 10 10 9 7 6 4 4 5 6 6 7 7 6 4 4 5 5 6 6 6 5 4
8 8 8 8 8 9 9 9 10 10 11 11 12 13 14 13 12 11 13 13 13 12 11 10 9 8 7 5 3 3 4 6 6 6 6 6 5 4 4 5 6 6 5 4 3
7 7 7 7 8 8 8 8 9 9 10 10 12 14 14 13 11 11 12 12 12 12 11 9 7 6 6 4 3 3 4 5 5 5 5 5 4 4 4 5 5 5 5 3 2
7 7 7 7 7 8 8 8 8 8 9 10 11 13 14 12 10 10 11 11 11 11 10 7 5 5 5 4 3 3 3 4 4 4 4 4 4 4 4 4 5 5 4 3 2
7 7 7 7 7 8 8 8 8 8 9 9 11 13 13 11 9 10 11 11 11 10 9 6 5 4 5 5 4 3 3 3 3 3 3 3 4 4 4 4 4 5 4 3 2
7 7 7 7 8 8 8 8 8 8 9 9 11 12 12 10 9 10 10 10 10 10 8 6 5 4 4 5 5 4 3 3 3 3 3 3 3 3 3 4 4 4 4 3 2
7 7 8 8 9 9 9 9 9 9 9 10 11 12 11 10 10 11 10 10 9 9 8 7 6 5 5 5 5 4 3 3 3 3 2 2 2 3 3 3 3 4 4 3 2
8 9 9 10 10 10 10 10 10 10 10 10 11 12 11 11 11 11 10 9 8 8 8 7 7 6 6 5 5 4 3 3 3 2 1 1 2 3 3 2 3 3 3 3 2
9 10 11 11 11 11 11 12 12 11 11 11 12 11 11 11 11 11 10 8 7 7 7 7 7 7 7 6 5 4 3 3 3 2 1 1 3 3 2 2 2 3 3 3 3
11 11 12 12 12 12 12 13 13 13 12 13 12 11 10 10 10 9 9 8 7 6 6 6 6 6 6 6 5 4 3 3 3 2 1 2 3 3 2 1 2 2 3 3 3
11 12 12 12 12 12 13 13 13 13 13 13 12 10 9 9 8 8 8 7 6 5 5 6 5 5 6 5 4 4 4 3 3 2 1 2 2 2 2 1 1 2 2 3 3
12 12 12 13 13 13 13 13 13 13 13 12 12 10 9 9 8 7 7 6 5 5 5 5 5 5 5 5 4 4 4 4 3 3 2 2 2 2 2 2 2 2 2 3 3
12 12 12 13 14 14 14 14 14 14 13 12 12 12 10 9 7 6 6 5 5 5 5 5 5 5 5 5 4 4 4 4 4 3 2 2 2 2 2 2 2 2 3 3 3
12 12 13 14 14 15 15 15 15 14 12 12 12 12 10 7 6 5 5 4 4 4 4 4 4 4 5 5 4 4 4 4 3 3 2 2 3 3 3 2 2 3 3 3 4
12 13 13 14 15 15 16 16 16 13 10 10 11 10 7 5 4 4 4 4 4 4 4 4 4 4 4 4 4 4 4 4 3 3 2 2 3 4 4 3 3 4 4 4 4
14 14 15 15 15 16 17 17 15 11 9 9 10 7 4 3 3 4 4 3 3 4 4 4 4 4 4 4 4 5 4 4 3 2 2 3 3 4 5 5 5 5 4 4 4
16 16 16 16 16 17 17 15 12 10 10 10 8 6 3 2 2 3 3 2 3 3 3 3 3 4 4 4 4 4 4 2 1 1 2 3 3 4 5 5 6 6 5 5 4
16 16 16 17 18 18 17 14 11 11 11 10 8 5 3 2 2 2 2 2 2 2 2 2 2 3 3 3 3 3 3 2 1 1 2 2 3 4 5 6 6 6 6 5 5
17 17 17 18 19 18 16 13 12 11 11 9 7 4 2 2 2 2 2 2 2 3 2 2 2 2 3 3 3 2 2 2 1 1 2 3 3 4 5 5 5 5 5 5 5
17 17 18 19 19 17 15 13 12 11 10 8 5 3 2 2 2 2 2 2 2 3 3 2 2 2 3 3 2 2 1 1 1 1 1 2 3 4 5 5 5 5 5 5 5
17 17 18 19 18 16 14 13 12 11 9 7 4 3 2 1 2 2 2 2 3 3 3 3 2 2 2 2 2 1 1 1 0 0 0 1 3 4 4 4 4 4 3 4 4
17 17 19 19 17 15 14 13 12 11 9 6 4 2 2 2 1 2 2 2 3 3 3 2 2 1 1 2 1 1 1 1 1 1 0 1 2 3 3 3 3 3 3 3 3
17 17 18 18 15 14 13 12 11 10 8 6 4 3 2 2 2 2 2 2 3 2 2 2 2 1 1 1 1 2 2 2 2 1 1 1 1 2 2 3 3 3 3 2 2
16 16 17 16 15 14 13 12 11 10 8 6 4 3 2 2 2 2 2 2 2 2 2 2 1 1 1 1 2 2 2 3 2 2 1 1 1 2 2 3 4 4 3 3 3
17 16 16 15 14 14 13 11 10 9 7 6 4 3 2 2 1 1 2 2 2 2 2 2 1 1 1 2 2 3 3 3 3 2 2 2 2 2 2 2 3 3 4 4 4
17 17 16 15 14 14 13 11 10 8 7 5 4 3 2 1 1 1 2 2 2 2 2 2 2 2 2 2 2 3 3 3 3 2 2 2 2 2 2 2 2 3 4 4 5
17 17 16 16 15 14 13 11 10 8 7 5 4 3 2 1 1 2 2 2 2 2 2 2 2 2 1 2 2 2 2 2 2 2 2 2 2 2 2 2 3 3 3 4 5